Flag for Peru Weather past 2 weeks in Iquitos, Loreto, Peru

Now
81 °F

Sprinkles. Partly sunny.


Feels Like: 86 °F
Forecast: 75 / 84 °F
Wind: 7 mph from North

Location: Iquitos Airport

Current Time: Apr 28, 2015 at 3:12:33 PM

Latest Report: Apr 28, 2015 at 1:00 PM


Visibility: 5 mi

Pressure: 29.83 "Hg

Humidity: 84%

Dew point: 75 °F

Location of IquitosLocation

Historic Weather in Iquitos — Graph

°F

Iquitos temperature yesterday

Maximum temperature yesterday: 86 °F (at 12:00 PM)
Minimum temperature yesterday: 75 °F (at 12:00 AM)
Average temperature yesterday: 79 °F

Past Weeks' High & Low Weather Summary

 TemperatureHumidityPressure
High91 °F (Apr 19, 3:00 PM)100% (Apr 14, 1:00 AM)30.09 "Hg (Apr 14, 1:00 AM)
Low73 °F (Apr 14, 1:00 AM)49% (Apr 14, 3:00 PM)29.71 "Hg (Apr 20, 5:00 PM)
Average79 °F86%29.87 "Hg
* Reported Apr 13 1:00 PM — Apr 28 1:00 PM, Iquitos, Weather by CustomWeather, © 2015

Note: Actual official high and low records may vary slightly from our data, if they occured in-between our weather recording intervals... More about our weather records

Advertising

Iquitos weather history for previous 24 hours

 ConditionsComfort  
Time TempWeatherWind HumidityBarometerVisibility
1:00 PM
Tue, Apr 28
81 °FSprinkles. Partly sunny.7 mph84%29.83 "Hg5 mi
12:00 PM88 °FScattered showers. Broken clouds.5 mph66%29.86 "HgN/A
11:00 AM86 °FBroken clouds.7 mph66%29.89 "HgN/A
10:00 AM82 °FScattered clouds.6 mph79%29.89 "HgN/A
9:00 AM82 °FPartly sunny.3 mph74%29.89 "HgN/A
8:00 AM81 °FBroken clouds.3 mph84%29.86 "HgN/A
7:00 AM77 °FPartly sunny.No wind94%29.86 "Hg5 mi
6:00 AM75 °FBroken clouds.3 mph94%29.86 "HgN/A
5:00 AM75 °FPartly cloudy.No wind94%29.83 "HgN/A
4:00 AM73 °FPartly cloudy.2 mph94%29.83 "HgN/A
3:00 AM73 °FPartly cloudy.2 mph94%29.83 "HgN/A
2:00 AM75 °FPartly cloudy.2 mph94%29.86 "HgN/A
1:00 AM75 °FPartly cloudy.No wind94%29.86 "HgN/A
12:00 AM75 °FPartly cloudy.1 mph94%29.89 "HgN/A
11:00 PM
Mon, Apr 27
75 °FPartly cloudy.1 mph94%29.92 "HgN/A
10:00 PM77 °FPassing clouds.3 mph94%29.92 "HgN/A
9:00 PM77 °FPassing clouds.1 mph94%29.89 "HgN/A
8:00 PM77 °FPassing clouds.1 mph94%29.86 "HgN/A
7:00 PM75 °FPassing clouds.3 mph94%29.77 "HgN/A
6:00 PM77 °FPassing clouds.2 mph89%29.80 "HgN/A
5:00 PM79 °FBroken clouds.5 mph84%29.77 "HgN/A
4:00 PM79 °FPartly sunny.5 mph84%29.77 "HgN/A
3:00 PM77 °FScattered showers. Partly sunny.5 mph89%29.77 "Hg5 mi
Weather by CustomWeather, © 2015

See weather overviewHow to use our weather pages